Regional Weather Roundup
Issued by NWS

Home | Current Version | Previous Version | Graphics & Text | Print | Product List | Glossary On
Versions: 1 2 3 4 5 6 7 8 9 10 11 12 13 14 15 16 17 18 19 20 21 22 23 24 25 26 27 28 29 30 31 32 33 34 35 36 37 38 39 40 41 42 43 44 45 46 47 48 49 50
000
ASUS43 KLOT 271804
RWRIL

ILLINOIS REGIONAL WEATHER ROUNDUP
NATIONAL WEATHER SERVICE CHICAGO/ROMEOVILLE IL
100 PM CDT SUN MAY 27 2018

NOTE: "FAIR" INDICATES FEW OR NO CLOUDS BELOW 12,000 FEET WITH NO
SIGNIFICANT WEATHER AND/OR OBSTRUCTIONS TO VISIBILITY.

* THESE STATIONS ARE NOT UNDER NWS QUALITY CONTROL. THEY ALSO MAY NOT
  REPORT WEATHER SUCH AS PRECIPITATION OR FOG.

ILZ001-002-007-009-015-016-024-271900-
NORTHWEST ILLINOIS

CITY           SKY/WX    TMP DP  RH WIND       PRES   REMARKS
MOLINE         FAIR      95  68  41 W8        29.85F HX  99
6HR MIN TEMP:  71; 6HR MAX TEMP:  95;

STERLING*        N/A    N/A N/A N/A MISG        N/A
$$

ILZ003-004-008-010-011-017-018-271900-
NORTH CENTRAL ILLINOIS

CITY           SKY/WX    TMP DP  RH WIND       PRES   REMARKS
ROCKFORD       FAIR      92  62  36 VRB3      29.89S HX  92
6HR MIN TEMP:  69; 6HR MAX TEMP:  92;

FREEPORT*      FAIR      91  63  40 SW7       29.90S HX  91
$$

ILZ005-006-012>014-019>023-271900-
NORTHEAST ILLINOIS

CITY           SKY/WX    TMP DP  RH WIND       PRES   REMARKS
CHICAGO-OHARE  FAIR      93  59  31 SW8       29.87S HX  92
6HR MIN TEMP:  75; 6HR MAX TEMP:  93;

CHICAGO-MIDWAY FAIR      92  65  40 CALM      29.87S HX  94
6HR MIN TEMP:  75; 6HR MAX TEMP:  93;

AURORA         FAIR      93  61  34 VRB5      29.88S HX  93
6HR MIN TEMP:  71; 6HR MAX TEMP:  93;

LANSING*       PTSUNNY   91  69  47 W6        29.88S HX  96
WAUKEGAN       FAIR      89  67  47 SE6       29.88R HX  92
6HR MIN TEMP:  73; 6HR MAX TEMP:  91;

DUPAGE AIRPORT FAIR      91  61  36 S3        29.88S HX  91
6HR MIN TEMP:  71; 6HR MAX TEMP:  92;

WHEELING       FAIR      94  60  32 VRB3      29.89S HX  94
6HR MIN TEMP:  71; 6HR MAX TEMP:  95;

$$

LMZ740>746-271900-
SOUTHERN LAKE MICHIGAN

STATION/POSITION SKY/WX   TEMP    WIND        PRES    VSBY  WAVE
                          AIR SEA DIR/SP/G                  HT/PER
                          (F)     (DEG/KT/KT) (MB)    (MI)  (FT/S)
SOUTHERN BUOY              55 41  180/  6/  8 1012.2          0
WILMETTE HARBOR            66 60  120/  4/  6   N/A           0
HARRISON CRIB              79     100/ 10/ 11   N/A
BURNHAM HARBOR                     90/  2/  6   N/A
CALUMET HARBOR             84      90/  8/ 10 1011.4R
BURNS HARBOR               76      70/  6/  8 1012.5R
MICHIGAN CITY              78      30/  7/  7   N/A
MICHIGAN CITY 6N           77 73   40/  4/  6   N/A           0
ST. JOSEPH                 76 69     CALM     1012.2R         0
$$

ILZ025>027-034>036-040-047-049-050-058-095>099-271900-
WEST-CENTRAL ILLINOIS

CITY           SKY/WX    TMP DP  RH WIND       PRES   REMARKS
QUINCY         SUNNY     92  69  47 VRB3      29.88F HX  97
MACOMB*        SUNNY     91  73  55 S7        29.90S HX  99
$$

ILZ028>032-037-038-041>044-048-051>054-059>061-271900-
CENTRAL ILLINOIS

CITY           SKY/WX    TMP DP  RH WIND       PRES   REMARKS
BLOOMINGTON    FAIR      93  67  42 VRB7      29.90F HX  96
DECATUR        FAIR      91  69  48 VRB5      29.88F HX  96
PEORIA         FAIR      92  72  51 CALM      29.88F HX  99
6HR MIN TEMP:  73; 6HR MAX TEMP:  92;

SPRINGFIELD    FAIR      93  73  52 W7        29.88F HX 102
6HR MIN TEMP:  75; 6HR MAX TEMP:  93;

TAYLORVILLE    NOT AVBL
$$

ILZ033-039-045-046-055>057-062-063-271900-
EAST-CENTRAL ILLINOIS

CITY           SKY/WX    TMP DP  RH WIND       PRES   REMARKS
CHAMPAIGN      FAIR      91  68  46 S5        29.89F HX  95
MATTOON        FAIR      90  72  55 MISG      29.89F HX  97
$$

ILZ079-100>102-271900-
SOUTHWEST ILLINOIS

CITY           SKY/WX    TMP DP  RH WIND       PRES   REMARKS
ALTON          MOSUNNY   91  73  55 S7        29.89F HX 100
BELLEVILLE     MOSUNNY   90  72  55 CALM      29.88F HX  97
CAHOKIA*       MOSUNNY   92  70  48 CALM      29.88F HX  97
SPARTA*        MOSUNNY   88  74  63 NW3       29.91F HX  97
$$

ILZ064>066-069>071-074>076-080>082-084>086-088>090-092>094-271900-
SOUTH-CENTRAL ILLINOIS

CITY           SKY/WX    TMP DP  RH WIND       PRES   REMARKS
CARBONDALE     FAIR      88  72  58 SW6       29.90F HX  94
6HR MIN TEMP:  71; 6HR MAX TEMP:  89;

MARION         PTSUNNY   88  70  55 SW6       29.92S HX  92
MT. VERNON     FAIR      90  73  57 CALM      29.91R HX  98
SALEM*         PTSUNNY   92  69  47 S7        29.90S HX  97
$$

ILZ067-068-072-073-078-083-087-091-271900-
SOUTHEAST ILLINOIS

CITY           SKY/WX    TMP DP  RH WIND       PRES   REMARKS
LAWRENCEVILLE  FAIR      93  64  38 CALM      29.90S HX  94
FLORA*         PTSUNNY   90  71  53 CALM      29.90S HX  96
HARRISBURG*    FAIR      89  71  55 S5        29.92R HX  94
ROBINSON*      FAIR      91  68  46 S5        29.90S HX  94
$$

ABBREVIATIONS USED IN REMARKS
   TC - TEMPERATURE IN CELSIUS
  WCI - WIND CHILL INDEX
   HX - HEAT INDEX
  VSB - VISIBILITY
$$





USA.gov is the U.S. government's official web portal to all federal, state and local government web resources and services.